This is the latest recevied weather packets stored in our database for station/object K0QJ. If no packets are shown the sender has not sent any weather packets the latest 10 day(s).
| Time | Temp. | Humidity | Pressure | Rain* | Wind** | Luminosity | Snow |
|---|---|---|---|---|---|---|---|
| 1777567495 | 17.78° C | 49% | 1017.5 hPa | 0 mm | - | 796 W/m² | - |
| 1777567193 | 17.78° C | 49% | 1017.4 hPa | 0 mm | - | 659 W/m² | - |
| 1777566890 | 17.78° C | 52% | 1017.4 hPa | 0 mm | - | 837 W/m² | - |
| 1777566588 | 17.22° C | 53% | 1017.7 hPa | 0 mm | - | 804 W/m² | - |
| 1777566285 | 17.78° C | 51% | 1017.6 hPa | 0 mm | - | 779 W/m² | - |
| 1777565983 | 17.78° C | 52% | 1017.6 hPa | 0 mm | - | 759 W/m² | - |
| 1777565677 | 16.67° C | 53% | 1017.7 hPa | 0 mm | - | 781 W/m² | - |
| 1777565375 | 16.67° C | 54% | 1017.9 hPa | 0 mm | - | 734 W/m² | - |
| 1777565070 | 16.67° C | 52% | 1017.9 hPa | 0 mm | - | 700 W/m² | - |
| 1777564766 | 16.11° C | 55% | 1018.1 hPa | 0 mm | - | 738 W/m² | - |
| 1777564462 | 15.56° C | 54% | 1018.1 hPa | 0 mm | - | 647 W/m² | - |
| 1777564157 | 15.56° C | 55% | 1018.2 hPa | 0 mm | - | 175 W/m² | - |
| 1777563853 | 16.11° C | 57% | 1017.9 hPa | 0 mm | - | 275 W/m² | - |
| 1777563550 | 15.56° C | 59% | 1018.1 hPa | 0 mm | - | 487 W/m² | - |
| 1777563244 | 15.56° C | 58% | 1018.2 hPa | 0 mm | - | 777 W/m² | - |
| 1777562940 | 15° C | 58% | 1018.2 hPa | 0 mm | - | 665 W/m² | - |
| 1777562635 | 15° C | 59% | 1018.3 hPa | 0 mm | - | 360 W/m² | - |
| 1777562330 | 15° C | 58% | 1018.3 hPa | 0 mm | - | 171 W/m² | - |
| 1777562027 | 14.44° C | 60% | 1017.9 hPa | 0 mm | - | 249 W/m² | - |
| 1777561724 | 14.44° C | 61% | 1018 hPa | 0 mm | - | 258 W/m² | - |
| 1777561419 | 14.44° C | 62% | 1018.1 hPa | 0 mm | - | 157 W/m² | - |
| 1777561115 | 13.89° C | 62% | 1018.2 hPa | 0 mm | - | 182 W/m² | - |
| 1777560810 | 13.89° C | 61% | 1018.3 hPa | 0 mm | - | 176 W/m² | - |
| 1777560508 | 14.44° C | 62% | 1018 hPa | 0 mm | - | 196 W/m² | - |
| 1777560205 | 14.44° C | 61% | 1018.3 hPa | 0 mm | - | 182 W/m² | - |
* Rain latest hour (hover to see other rain measurements)
** Current wind speed in m/s (hover to see current wind gust speed)